Time,TemperatureF,DewpointF,PressureIn,WindDirection,WindDirectionDegrees,WindSpeedMPH,WindSpeedGustMPH,Humidity,HourlyPrecipIn,Conditions,Clouds,dailyrainin,SoftwareType,DateUTC
2013-01-06 00:00:00,37.6,27.6,30.36,WSW,245,1.0,1.0,67,0.00,,,0.00,Wunderground v.1.15,2013-01-06 05:00:00,
2013-01-06 00:06:00,37.5,28.2,30.36,WSW,244,0.0,1.0,69,0.00,,,0.00,Wunderground v.1.15,2013-01-06 05:06:00,
2013-01-06 00:08:00,37.4,28.9,30.36,WSW,245,0.0,1.0,71,0.00,,,0.00,Wunderground v.1.15,2013-01-06 05:08:00,
2013-01-06 00:12:00,37.2,28.3,30.36,WSW,245,0.0,0.0,70,0.00,,,0.00,Wunderground v.1.15,2013-01-06 05:12:00,
2013-01-06 00:14:00,37.2,28.3,30.35,WSW,246,0.0,0.0,70,0.00,,,0.00,Wunderground v.1.15,2013-01-06 05:14:00,
2013-01-06 00:20:00,37.0,28.5,30.35,WSW,245,0.0,0.0,71,0.00,,,0.00,Wunderground v.1.15,2013-01-06 05:20:00,
2013-01-06 00:26:00,37.0,28.8,30.34,North,11,0.0,1.0,72,0.00,,,0.00,Wunderground v.1.15,2013-01-06 05:26:00,
2013-01-06 00:32:00,36.9,29.1,30.34,WSW,242,1.0,1.0,73,0.00,,,0.00,Wunderground v.1.15,2013-01-06 05:32:00,
2013-01-06 00:38:00,36.9,29.4,30.34,NNE,12,1.0,1.0,74,0.00,,,0.00,Wunderground v.1.15,2013-01-06 05:38:00,
2013-01-06 00:44:00,36.9,29.7,30.34,West,265,1.0,1.0,75,0.00,,,0.00,Wunderground v.1.15,2013-01-06 05:44:00,
2013-01-06 00:50:00,37.0,29.5,30.34,West,278,0.0,0.0,74,0.00,,,0.00,Wunderground v.1.15,2013-01-06 05:50:00,
2013-01-06 00:56:00,37.0,29.8,30.34,West,277,0.0,0.0,75,0.00,,,0.00,Wunderground v.1.15,2013-01-06 05:56:00,
2013-01-06 01:02:00,37.0,30.1,30.33,SE,124,0.0,1.0,76,0.00,,,0.00,Wunderground v.1.15,2013-01-06 06:02:00,
2013-01-06 01:08:00,37.0,30.8,30.33,SE,127,0.0,1.0,78,0.00,,,0.00,Wunderground v.1.15,2013-01-06 06:08:00,
2013-01-06 01:14:00,36.9,30.7,30.34,SE,126,0.0,0.0,78,0.00,,,0.00,Wunderground v.1.15,2013-01-06 06:14:00,
2013-01-06 01:20:00,36.8,31.8,30.34,SE,126,0.0,0.0,82,0.00,,,0.00,Wunderground v.1.15,2013-01-06 06:20:00,
2013-01-06 01:26:00,36.5,31.8,30.33,SW,217,0.0,1.0,83,0.00,,,0.00,Wunderground v.1.15,2013-01-06 06:26:00,
2013-01-06 01:32:00,36.2,31.8,30.33,SW,216,1.0,1.0,84,0.00,,,0.00,Wunderground v.1.15,2013-01-06 06:32:00,
2013-01-06 01:38:00,36.0,31.9,30.33,SW,217,0.0,1.0,85,0.00,,,0.00,Wunderground v.1.15,2013-01-06 06:38:00,
2013-01-06 01:44:00,35.8,32.3,30.33,SW,217,0.0,0.0,87,0.00,,,0.00,Wunderground v.1.15,2013-01-06 06:44:00,
2013-01-06 01:50:00,35.6,32.1,30.33,SW,217,0.0,0.0,87,0.00,,,0.00,Wunderground v.1.15,2013-01-06 06:50:00,
2013-01-06 01:56:00,35.4,32.2,30.33,SW,217,0.0,0.0,88,0.00,,,0.00,Wunderground v.1.15,2013-01-06 06:56:00,
2013-01-06 02:02:00,35.4,32.5,30.33,SW,218,0.0,1.0,89,0.00,,,0.01,Wunderground v.1.15,2013-01-06 07:02:00,
2013-01-06 02:08:00,35.3,32.9,30.32,SW,218,0.0,1.0,91,0.00,,,0.01,Wunderground v.1.15,2013-01-06 07:08:00,
2013-01-06 02:14:00,35.2,32.8,30.32,NNE,13,0.0,1.0,91,0.00,,,0.01,Wunderground v.1.15,2013-01-06 07:14:00,
2013-01-06 02:20:00,35.0,32.6,30.32,NNE,12,0.0,0.0,91,0.00,,,0.01,Wunderground v.1.15,2013-01-06 07:20:00,
2013-01-06 02:26:00,35.0,32.9,30.32,NE,47,0.0,0.0,92,0.00,,,0.01,Wunderground v.1.15,2013-01-06 07:26:00,
2013-01-06 02:32:00,35.0,33.2,30.32,East,90,0.0,0.0,93,0.00,,,0.01,Wunderground v.1.15,2013-01-06 07:32:00,
2013-01-06 02:38:00,35.1,33.3,30.32,SW,224,0.0,1.0,93,0.00,,,0.01,Wunderground v.1.15,2013-01-06 07:38:00,
2013-01-06 02:44:00,35.2,33.4,30.31,SW,224,0.0,0.0,93,0.00,,,0.01,Wunderground v.1.15,2013-01-06 07:44:00,
2013-01-06 02:50:00,35.3,33.5,30.31,SW,224,0.0,0.0,93,0.00,,,0.01,Wunderground v.1.15,2013-01-06 07:50:00,
2013-01-06 02:56:00,35.3,33.5,30.31,SW,223,0.0,0.0,93,0.00,,,0.01,Wunderground v.1.15,2013-01-06 07:56:00,
2013-01-06 03:02:00,35.2,33.4,30.31,SW,224,0.0,0.0,93,0.00,,,0.01,Wunderground v.1.15,2013-01-06 08:02:00,
2013-01-06 03:08:00,35.2,33.4,30.31,SW,224,0.0,1.0,93,0.00,,,0.01,Wunderground v.1.15,2013-01-06 08:08:00,
2013-01-06 03:14:00,35.2,33.6,30.30,SW,224,0.0,0.0,94,0.00,,,0.01,Wunderground v.1.15,2013-01-06 08:14:00,
2013-01-06 03:20:00,35.3,33.7,30.30,SW,223,0.0,0.0,94,0.00,,,0.01,Wunderground v.1.15,2013-01-06 08:20:00,
2013-01-06 03:26:00,35.4,33.8,30.30,SW,224,0.0,0.0,94,0.00,,,0.01,Wunderground v.1.15,2013-01-06 08:26:00,
2013-01-06 03:32:00,35.4,33.8,30.29,SW,226,0.0,0.0,94,0.00,,,0.01,Wunderground v.1.15,2013-01-06 08:32:00,
2013-01-06 03:38:00,35.4,33.8,30.29,SW,226,0.0,1.0,94,0.00,,,0.01,Wunderground v.1.15,2013-01-06 08:38:00,
2013-01-06 03:44:00,35.4,33.8,30.28,SW,226,0.0,1.0,94,0.00,,,0.01,Wunderground v.1.15,2013-01-06 08:44:00,
2013-01-06 03:50:00,35.5,33.9,30.28,SW,226,0.0,0.0,94,0.00,,,0.01,Wunderground v.1.15,2013-01-06 08:50:00,
2013-01-06 03:56:00,35.8,34.5,30.28,SW,226,0.0,1.0,95,0.00,,,0.01,Wunderground v.1.15,2013-01-06 08:56:00,
2013-01-06 04:02:00,35.9,34.3,30.28,SW,226,0.0,0.0,94,0.00,,,0.01,Wunderground v.1.15,2013-01-06 09:02:00,
2013-01-06 04:08:00,36.1,34.5,30.27,SW,226,0.0,0.0,94,0.00,,,0.01,Wunderground v.1.15,2013-01-06 09:08:00,
2013-01-06 04:14:00,35.5,33.4,30.27,NNE,15,0.0,2.0,92,0.00,,,0.01,Wunderground v.1.15,2013-01-06 09:14:00,
2013-01-06 04:20:00,34.8,32.7,30.27,NNE,15,1.0,2.0,92,0.00,,,0.01,Wunderground v.1.15,2013-01-06 09:20:00,
2013-01-06 04:26:00,34.3,32.5,30.27,North,11,1.0,2.0,93,0.00,,,0.01,Wunderground v.1.15,2013-01-06 09:26:00,
2013-01-06 04:32:00,34.2,32.7,30.26,North,4,1.0,1.0,94,0.00,,,0.01,Wunderground v.1.15,2013-01-06 09:32:00,
2013-01-06 04:38:00,34.2,32.7,30.26,NE,35,1.0,1.0,94,0.00,,,0.01,Wunderground v.1.15,2013-01-06 09:38:00,
2013-01-06 04:44:00,34.2,32.9,30.26,WSW,247,1.0,1.0,95,0.00,,,0.01,Wunderground v.1.15,2013-01-06 09:44:00,
2013-01-06 04:50:00,34.3,33.0,30.25,WSW,248,0.0,0.0,95,0.00,,,0.01,Wunderground v.1.15,2013-01-06 09:50:00,
2013-01-06 04:56:00,34.4,33.1,30.25,WSW,253,0.0,0.0,95,0.00,,,0.01,Wunderground v.1.15,2013-01-06 09:56:00,
2013-01-06 05:02:00,34.5,33.2,30.25,WSW,253,0.0,0.0,95,0.00,,,0.01,Wunderground v.1.15,2013-01-06 10:02:00,
2013-01-06 05:08:00,34.4,33.1,30.25,NE,38,0.0,2.0,95,0.00,,,0.01,Wunderground v.1.15,2013-01-06 10:08:00,
2013-01-06 05:14:00,34.0,32.5,30.25,NNE,32,1.0,1.0,94,0.00,,,0.01,Wunderground v.1.15,2013-01-06 10:14:00,
2013-01-06 05:20:00,33.7,32.4,30.25,NNE,32,0.0,1.0,95,0.00,,,0.01,Wunderground v.1.15,2013-01-06 10:20:00,
2013-01-06 05:26:00,33.6,32.3,30.25,NNE,32,0.0,1.0,95,0.00,,,0.01,Wunderground v.1.15,2013-01-06 10:26:00,
2013-01-06 05:32:00,33.5,32.2,30.25,NNE,32,0.0,1.0,95,0.00,,,0.01,Wunderground v.1.15,2013-01-06 10:32:00,
2013-01-06 05:38:00,33.5,32.5,30.25,NE,47,0.0,1.0,96,0.00,,,0.01,Wunderground v.1.15,2013-01-06 10:38:00,
2013-01-06 05:44:00,33.5,32.5,30.25,NE,46,0.0,0.0,96,0.00,,,0.01,Wunderground v.1.15,2013-01-06 10:44:00,
2013-01-06 05:50:00,33.6,32.6,30.24,NNE,25,0.0,0.0,96,0.00,,,0.01,Wunderground v.1.15,2013-01-06 10:50:00,
2013-01-06 05:56:00,33.6,32.6,30.24,NNE,25,0.0,0.0,96,0.00,,,0.01,Wunderground v.1.15,2013-01-06 10:56:00,
2013-01-06 06:02:00,33.6,32.6,30.24,NNE,25,0.0,0.0,96,0.00,,,0.01,Wunderground v.1.15,2013-01-06 11:02:00,
2013-01-06 06:08:00,33.6,32.6,30.24,NNE,25,0.0,0.0,96,0.00,,,0.01,Wunderground v.1.15,2013-01-06 11:08:00,
2013-01-06 06:14:00,33.7,32.7,30.24,NNW,342,0.0,0.0,96,0.00,,,0.01,Wunderground v.1.15,2013-01-06 11:14:00,
2013-01-06 06:20:00,33.7,32.7,30.25,NNW,342,0.0,1.0,96,0.00,,,0.01,Wunderground v.1.15,2013-01-06 11:20:00,
2013-01-06 06:26:00,33.6,32.6,30.25,NNW,345,0.0,1.0,96,0.00,,,0.01,Wunderground v.1.15,2013-01-06 11:26:00,
2013-01-06 06:32:00,33.2,31.9,30.25,NNW,344,0.0,0.0,95,0.00,,,0.01,Wunderground v.1.15,2013-01-06 11:32:00,
2013-01-06 06:38:00,33.1,32.1,30.26,NNW,345,0.0,0.0,96,0.00,,,0.01,Wunderground v.1.15,2013-01-06 11:38:00,
2013-01-06 06:44:00,32.9,31.9,30.25,NW,322,0.0,0.0,96,0.00,,,0.01,Wunderground v.1.15,2013-01-06 11:44:00,
2013-01-06 06:50:00,32.8,31.8,30.25,North,359,0.0,0.0,96,0.00,,,0.01,Wunderground v.1.15,2013-01-06 11:50:00,
2013-01-06 06:56:00,32.9,31.9,30.25,North,9,1.0,2.0,96,0.00,,,0.01,Wunderground v.1.15,2013-01-06 11:56:00,
2013-01-06 07:02:00,33.0,32.0,30.25,NNW,347,1.0,1.0,96,0.00,,,0.01,Wunderground v.1.15,2013-01-06 12:02:00,
2013-01-06 07:08:00,33.2,32.4,30.25,North,360,0.0,1.0,97,0.00,,,0.01,Wunderground v.1.15,2013-01-06 12:08:00,
2013-01-06 07:14:00,33.3,32.5,30.25,NW,316,0.0,0.0,97,0.00,,,0.01,Wunderground v.1.15,2013-01-06 12:14:00,
2013-01-06 07:20:00,33.5,32.7,30.25,NW,306,0.0,0.0,97,0.00,,,0.01,Wunderground v.1.15,2013-01-06 12:20:00,
2013-01-06 07:26:00,33.5,32.7,30.26,NW,323,0.0,0.0,97,0.00,,,0.01,Wunderground v.1.15,2013-01-06 12:26:00,
2013-01-06 07:32:00,33.7,32.9,30.26,NW,323,0.0,0.0,97,0.00,,,0.01,Wunderground v.1.15,2013-01-06 12:32:00,
2013-01-06 07:38:00,33.5,32.5,30.26,NW,323,0.0,1.0,96,0.00,,,0.01,Wunderground v.1.15,2013-01-06 12:38:00,
2013-01-06 07:44:00,33.4,32.4,30.25,NW,324,0.0,0.0,96,0.00,,,0.01,Wunderground v.1.15,2013-01-06 12:44:00,
2013-01-06 07:50:00,33.6,32.8,30.25,NW,323,0.0,0.0,97,0.00,,,0.01,Wunderground v.1.15,2013-01-06 12:50:00,
2013-01-06 07:56:00,33.8,33.0,30.25,NW,323,0.0,0.0,97,0.00,,,0.01,Wunderground v.1.15,2013-01-06 12:56:00,
2013-01-06 08:02:00,34.1,33.3,30.26,NW,323,0.0,0.0,97,0.00,,,0.01,Wunderground v.1.15,2013-01-06 13:02:00,
2013-01-06 08:08:00,34.2,33.4,30.26,NW,323,0.0,0.0,97,0.00,,,0.01,Wunderground v.1.15,2013-01-06 13:08:00,
2013-01-06 08:14:00,34.4,33.6,30.26,NW,323,0.0,0.0,97,0.00,,,0.01,Wunderground v.1.15,2013-01-06 13:14:00,
2013-01-06 08:20:00,34.4,33.6,30.26,NW,323,0.0,0.0,97,0.00,,,0.01,Wunderground v.1.15,2013-01-06 13:20:00,
2013-01-06 08:26:00,34.4,33.4,30.26,NW,323,0.0,0.0,96,0.00,,,0.01,Wunderground v.1.15,2013-01-06 13:26:00,
2013-01-06 08:32:00,34.5,33.5,30.25,ESE,113,0.0,0.0,96,0.00,,,0.01,Wunderground v.1.15,2013-01-06 13:32:00,
2013-01-06 08:38:00,34.5,33.5,30.25,ESE,113,0.0,1.0,96,0.00,,,0.01,Wunderground v.1.15,2013-01-06 13:38:00,
2013-01-06 08:44:00,34.8,33.8,30.25,ESE,106,0.0,0.0,96,0.00,,,0.01,Wunderground v.1.15,2013-01-06 13:44:00,
2013-01-06 08:50:00,34.8,33.8,30.25,SE,126,0.0,0.0,96,0.00,,,0.01,Wunderground v.1.15,2013-01-06 13:50:00,
2013-01-06 08:56:00,34.8,33.5,30.25,SE,125,0.0,0.0,95,0.00,,,0.01,Wunderground v.1.15,2013-01-06 13:56:00,
2013-01-06 09:02:00,35.1,33.8,30.25,ESE,103,0.0,0.0,95,0.00,,,0.01,Wunderground v.1.15,2013-01-06 14:02:00,
2013-01-06 09:08:00,35.5,34.2,30.25,ESE,103,0.0,0.0,95,0.00,,,0.01,Wunderground v.1.15,2013-01-06 14:08:00,
2013-01-06 09:14:00,35.6,34.0,30.25,ENE,64,0.0,0.0,94,0.00,,,0.01,Wunderground v.1.15,2013-01-06 14:14:00,
2013-01-06 09:20:00,35.5,33.7,30.24,ENE,63,0.0,0.0,93,0.00,,,0.01,Wunderground v.1.15,2013-01-06 14:20:00,
2013-01-06 09:26:00,35.9,34.3,30.24,ENE,63,0.0,0.0,94,0.00,,,0.01,Wunderground v.1.15,2013-01-06 14:26:00,
2013-01-06 09:32:00,36.7,34.6,30.24,ENE,63,0.0,0.0,92,0.00,,,0.01,Wunderground v.1.15,2013-01-06 14:32:00,
2013-01-06 09:38:00,37.5,35.4,30.24,ESE,115,0.0,1.0,92,0.00,,,0.01,Wunderground v.1.15,2013-01-06 14:38:00,
2013-01-06 09:44:00,38.5,35.5,30.25,ESE,116,1.0,2.0,89,0.00,,,0.01,Wunderground v.1.15,2013-01-06 14:44:00,
2013-01-06 09:50:00,38.9,35.4,30.25,ENE,62,1.0,1.0,87,0.00,,,0.01,Wunderground v.1.15,2013-01-06 14:50:00,
2013-01-06 09:56:00,39.0,34.6,30.25,NNE,32,1.0,2.0,84,0.00,,,0.01,Wunderground v.1.15,2013-01-06 14:56:00,
2013-01-06 10:02:00,39.3,35.8,30.25,SSE,158,1.0,1.0,87,0.00,,,0.01,Wunderground v.1.15,2013-01-06 15:02:00,
2013-01-06 10:08:00,40.1,35.0,30.25,ESE,111,1.0,1.0,82,0.00,,,0.01,Wunderground v.1.15,2013-01-06 15:08:00,
2013-01-06 10:14:00,40.8,36.0,30.25,NNE,25,1.0,2.0,83,0.00,,,0.01,Wunderground v.1.15,2013-01-06 15:14:00,
2013-01-06 10:20:00,40.5,35.1,30.25,NE,44,1.0,2.0,81,0.00,,,0.01,Wunderground v.1.15,2013-01-06 15:20:00,
2013-01-06 10:26:00,40.5,35.1,30.26,ENE,59,1.0,2.0,81,0.00,,,0.01,Wunderground v.1.15,2013-01-06 15:26:00,
2013-01-06 10:32:00,40.2,34.2,30.25,NE,39,1.0,2.0,79,0.00,,,0.01,Wunderground v.1.15,2013-01-06 15:32:00,
2013-01-06 10:38:00,39.7,34.0,30.25,NE,53,1.0,2.0,80,0.00,,,0.01,Wunderground v.1.15,2013-01-06 15:38:00,
2013-01-06 10:44:00,40.0,34.9,30.25,ENE,57,1.0,2.0,82,0.00,,,0.01,Wunderground v.1.15,2013-01-06 15:44:00,
2013-01-06 10:50:00,40.8,34.8,30.25,WNW,297,1.0,1.0,79,0.00,,,0.01,Wunderground v.1.15,2013-01-06 15:50:00,
2013-01-06 10:56:00,41.7,35.0,30.25,ENE,62,2.0,2.0,77,0.00,,,0.01,Wunderground v.1.15,2013-01-06 15:56:00,
2013-01-06 11:02:00,41.6,34.3,30.24,NE,52,2.0,6.0,75,0.00,,,0.01,Wunderground v.1.15,2013-01-06 16:02:00,
2013-01-06 11:08:00,39.9,33.9,30.25,NNE,24,2.0,6.0,79,0.00,,,0.01,Wunderground v.1.15,2013-01-06 16:08:00,
2013-01-06 11:14:00,38.9,33.6,30.25,NE,49,3.0,3.0,81,0.00,,,0.01,Wunderground v.1.15,2013-01-06 16:14:00,
2013-01-06 11:20:00,38.6,33.6,30.24,NE,34,2.0,2.0,82,0.00,,,0.01,Wunderground v.1.15,2013-01-06 16:20:00,
2013-01-06 11:26:00,39.2,34.5,30.24,NE,52,2.0,2.0,83,0.00,,,0.01,Wunderground v.1.15,2013-01-06 16:26:00,
2013-01-06 11:32:00,40.4,34.7,30.24,NNE,15,2.0,2.0,80,0.00,,,0.01,Wunderground v.1.15,2013-01-06 16:32:00,
2013-01-06 11:38:00,41.6,35.6,30.23,NE,46,1.0,2.0,79,0.00,,,0.01,Wunderground v.1.15,2013-01-06 16:38:00,
2013-01-06 11:44:00,42.2,35.5,30.23,ENE,72,1.0,2.0,77,0.00,,,0.01,Wunderground v.1.15,2013-01-06 16:44:00,
2013-01-06 11:50:00,42.5,35.8,30.23,ESE,117,1.0,2.0,77,0.00,,,0.01,Wunderground v.1.15,2013-01-06 16:50:00,
2013-01-06 11:56:00,43.4,36.3,30.23,ESE,117,1.0,2.0,76,0.00,,,0.01,Wunderground v.1.15,2013-01-06 16:56:00,
2013-01-06 12:02:00,44.2,36.1,30.23,SW,217,1.0,2.0,73,0.00,,,0.01,Wunderground v.1.15,2013-01-06 17:02:00,
2013-01-06 12:08:00,44.4,35.9,30.22,SE,132,2.0,2.0,72,0.00,,,0.01,Wunderground v.1.15,2013-01-06 17:08:00,
2013-01-06 12:14:00,44.5,35.7,30.22,ESE,122,2.0,6.0,71,0.00,,,0.01,Wunderground v.1.15,2013-01-06 17:14:00,
2013-01-06 12:20:00,45.0,35.4,30.22,SSW,207,2.0,4.0,69,0.00,,,0.01,Wunderground v.1.15,2013-01-06 17:20:00,
2013-01-06 12:26:00,44.8,35.2,30.21,SE,139,2.0,4.0,69,0.00,,,0.01,Wunderground v.1.15,2013-01-06 17:26:00,
2013-01-06 12:32:00,44.4,34.5,30.21,East,80,2.0,2.0,68,0.00,,,0.01,Wunderground v.1.15,2013-01-06 17:32:00,
2013-01-06 12:38:00,44.7,33.6,30.20,WSW,252,2.0,3.0,65,0.00,,,0.01,Wunderground v.1.15,2013-01-06 17:38:00,
2013-01-06 12:44:00,45.4,33.5,30.20,WNW,285,1.0,2.0,63,0.00,,,0.01,Wunderground v.1.15,2013-01-06 17:44:00,
2013-01-06 12:50:00,44.7,32.1,30.19,SSW,207,2.0,2.0,61,0.00,,,0.01,Wunderground v.1.15,2013-01-06 17:50:00,
2013-01-06 12:56:00,44.7,33.6,30.19,NE,50,2.0,5.0,65,0.00,,,0.01,Wunderground v.1.15,2013-01-06 17:56:00,
2013-01-06 13:02:00,45.6,33.7,30.19,ESE,117,2.0,5.0,63,0.00,,,0.01,Wunderground v.1.15,2013-01-06 18:02:00,
2013-01-06 13:08:00,45.4,33.5,30.18,SW,223,2.0,5.0,63,0.00,,,0.01,Wunderground v.1.15,2013-01-06 18:08:00,
2013-01-06 13:14:00,46.1,31.7,30.18,ESE,105,2.0,2.0,57,0.00,,,0.01,Wunderground v.1.15,2013-01-06 18:14:00,
2013-01-06 13:20:00,46.0,33.3,30.17,ENE,68,1.0,3.0,61,0.00,,,0.01,Wunderground v.1.15,2013-01-06 18:20:00,
2013-01-06 13:26:00,46.1,33.0,30.17,SE,124,2.0,3.0,60,0.00,,,0.01,Wunderground v.1.15,2013-01-06 18:26:00,
2013-01-06 13:32:00,46.2,31.8,30.17,SE,145,2.0,3.0,57,0.00,,,0.01,Wunderground v.1.15,2013-01-06 18:32:00,
2013-01-06 13:38:00,45.4,31.9,30.17,South,181,2.0,4.0,59,0.00,,,0.01,Wunderground v.1.15,2013-01-06 18:38:00,
2013-01-06 13:44:00,45.1,34.8,30.17,ENE,65,2.0,2.0,67,0.00,,,0.01,Wunderground v.1.15,2013-01-06 18:44:00,
2013-01-06 13:50:00,44.4,34.9,30.17,NE,38,1.0,2.0,69,0.00,,,0.01,Wunderground v.1.15,2013-01-06 18:50:00,
2013-01-06 13:56:00,42.5,34.5,30.17,NE,47,2.0,3.0,73,0.00,,,0.01,Wunderground v.1.15,2013-01-06 18:56:00,
2013-01-06 14:02:00,41.6,34.9,30.17,NNE,27,2.0,2.0,77,0.00,,,0.01,Wunderground v.1.15,2013-01-06 19:02:00,
2013-01-06 14:08:00,41.4,35.1,30.16,North,5,1.0,2.0,78,0.00,,,0.01,Wunderground v.1.15,2013-01-06 19:08:00,
2013-01-06 14:14:00,41.1,35.1,30.16,NE,37,2.0,2.0,79,0.00,,,0.01,Wunderground v.1.15,2013-01-06 19:14:00,
2013-01-06 14:20:00,40.6,34.9,30.16,NNE,16,2.0,3.0,80,0.00,,,0.01,Wunderground v.1.15,2013-01-06 19:20:00,
2013-01-06 14:26:00,40.3,34.9,30.16,ENE,64,2.0,4.0,81,0.00,,,0.01,Wunderground v.1.15,2013-01-06 19:26:00,
2013-01-06 14:32:00,39.7,35.0,30.17,NE,40,2.0,3.0,83,0.00,,,0.01,Wunderground v.1.15,2013-01-06 19:32:00,
2013-01-06 14:38:00,39.1,34.7,30.16,NNE,13,2.0,3.0,84,0.00,,,0.01,Wunderground v.1.15,2013-01-06 19:38:00,
2013-01-06 14:44:00,39.0,34.6,30.16,North,6,2.0,2.0,84,0.00,,,0.01,Wunderground v.1.15,2013-01-06 19:44:00,
2013-01-06 14:56:00,38.0,34.2,30.16,NNE,15,2.0,4.0,86,0.00,,,0.01,Wunderground v.1.15,2013-01-06 19:56:00,
2013-01-06 15:02:00,37.4,34.2,30.17,NNE,33,3.0,3.0,88,0.00,,,0.01,Wunderground v.1.15,2013-01-06 20:02:00,
2013-01-06 15:08:00,37.1,34.2,30.17,NE,56,2.0,3.0,89,0.00,,,0.01,Wunderground v.1.15,2013-01-06 20:08:00,
2013-01-06 15:12:00,37.1,34.4,30.18,ENE,63,2.0,2.0,90,0.00,,,0.01,Wunderground v.1.15,2013-01-06 20:12:00,
2013-01-06 15:14:00,37.1,34.4,30.18,NE,44,2.0,2.0,90,0.00,,,0.01,Wunderground v.1.15,2013-01-06 20:14:00,
2013-01-06 15:20:00,36.7,34.0,30.18,NE,53,2.0,2.0,90,0.00,,,0.01,Wunderground v.1.15,2013-01-06 20:20:00,
2013-01-06 15:26:00,36.4,34.0,30.18,NE,51,1.0,2.0,91,0.00,,,0.01,Wunderground v.1.15,2013-01-06 20:26:00,
2013-01-06 15:32:00,36.3,33.6,30.18,NE,37,1.0,2.0,90,0.00,,,0.01,Wunderground v.1.15,2013-01-06 20:32:00,
2013-01-06 15:38:00,35.9,33.5,30.18,NE,56,1.0,2.0,91,0.00,,,0.01,Wunderground v.1.15,2013-01-06 20:38:00,
2013-01-06 15:44:00,35.4,33.0,30.18,NE,53,1.0,1.0,91,0.00,,,0.01,Wunderground v.1.15,2013-01-06 20:44:00,
2013-01-06 15:50:00,35.0,32.9,30.18,NNE,12,1.0,2.0,92,0.00,,,0.01,Wunderground v.1.15,2013-01-06 20:50:00,
2013-01-06 15:56:00,34.8,32.7,30.18,North,11,2.0,2.0,92,0.00,,,0.01,Wunderground v.1.15,2013-01-06 20:56:00,
2013-01-06 16:02:00,34.5,32.4,30.18,North,4,2.0,2.0,92,0.00,,,0.01,Wunderground v.1.15,2013-01-06 21:02:00,
2013-01-06 16:04:00,34.4,32.6,30.18,North,351,2.0,2.0,93,0.00,,,0.01,Wunderground v.1.15,2013-01-06 21:04:00,
2013-01-06 16:10:00,34.5,32.7,30.18,NNE,30,1.0,1.0,93,0.00,,,0.01,Wunderground v.1.15,2013-01-06 21:10:00,
2013-01-06 16:16:00,34.6,32.5,30.19,NNE,16,1.0,1.0,92,0.00,,,0.01,Wunderground v.1.15,2013-01-06 21:16:00,
2013-01-06 16:22:00,34.7,32.3,30.19,NNW,346,1.0,1.0,91,0.00,,,0.01,Wunderground v.1.15,2013-01-06 21:22:00,
2013-01-06 16:28:00,34.8,32.4,30.19,NNW,347,0.0,1.0,91,0.00,,,0.01,Wunderground v.1.15,2013-01-06 21:28:00,
2013-01-06 16:34:00,34.7,32.1,30.19,NNE,21,0.0,2.0,90,0.00,,,0.01,Wunderground v.1.15,2013-01-06 21:34:00,
2013-01-06 16:40:00,34.5,31.6,30.19,North,8,1.0,1.0,89,0.00,,,0.01,Wunderground v.1.15,2013-01-06 21:40:00,
2013-01-06 16:46:00,34.2,31.8,30.19,NNE,26,1.0,1.0,91,0.00,,,0.01,Wunderground v.1.15,2013-01-06 21:46:00,
2013-01-06 16:52:00,34.1,31.5,30.19,NNE,20,1.0,1.0,90,0.00,,,0.01,Wunderground v.1.15,2013-01-06 21:52:00,
2013-01-06 16:58:00,34.1,31.2,30.19,NNE,15,0.0,1.0,89,0.00,,,0.01,Wunderground v.1.15,2013-01-06 21:58:00,
2013-01-06 17:04:00,33.9,30.7,30.19,NNE,15,0.0,0.0,88,0.00,,,0.01,Wunderground v.1.15,2013-01-06 22:04:00,
2013-01-06 17:10:00,33.9,31.0,30.19,North,356,0.0,1.0,89,0.00,,,0.01,Wunderground v.1.15,2013-01-06 22:10:00,
2013-01-06 17:16:00,34.0,30.8,30.20,NNW,345,1.0,1.0,88,0.00,,,0.01,Wunderground v.1.15,2013-01-06 22:16:00,
2013-01-06 17:22:00,34.0,30.8,30.20,NW,318,0.0,0.0,88,0.00,,,0.01,Wunderground v.1.15,2013-01-06 22:22:00,
2013-01-06 17:28:00,33.7,30.5,30.20,NW,318,0.0,1.0,88,0.00,,,0.01,Wunderground v.1.15,2013-01-06 22:28:00,
2013-01-06 17:34:00,32.9,30.6,30.20,NNE,25,1.0,2.0,91,0.00,,,0.01,Wunderground v.1.15,2013-01-06 22:34:00,
2013-01-06 17:40:00,32.4,30.6,30.21,NE,49,2.0,2.0,93,0.00,,,0.01,Wunderground v.1.15,2013-01-06 22:40:00,
2013-01-06 17:46:00,32.0,30.2,30.21,NNE,15,2.0,2.0,93,0.00,,,0.01,Wunderground v.1.15,2013-01-06 22:46:00,
2013-01-06 17:52:00,31.7,30.2,30.21,NNE,23,1.0,2.0,94,0.00,,,0.01,Wunderground v.1.15,2013-01-06 22:52:00,
2013-01-06 17:58:00,31.5,30.0,30.22,NNE,25,2.0,2.0,94,0.00,,,0.01,Wunderground v.1.15,2013-01-06 22:58:00,
2013-01-06 18:04:00,31.3,29.8,30.22,NNE,15,2.0,2.0,94,0.00,,,0.01,Wunderground v.1.15,2013-01-06 23:04:00,
2013-01-06 18:10:00,31.0,29.7,30.23,NE,39,2.0,3.0,95,0.00,,,0.01,Wunderground v.1.15,2013-01-06 23:10:00,
2013-01-06 18:16:00,30.9,29.6,30.23,NNE,29,2.0,3.0,95,0.00,,,0.01,Wunderground v.1.15,2013-01-06 23:16:00,
2013-01-06 18:22:00,30.6,29.3,30.23,NE,41,3.0,3.0,95,0.00,,,0.01,Wunderground v.1.15,2013-01-06 23:22:00,
2013-01-06 18:28:00,30.3,28.5,30.23,NNE,31,2.0,6.0,93,0.00,,,0.01,Wunderground v.1.15,2013-01-06 23:28:00,
2013-01-06 18:34:00,30.4,27.8,30.24,NNE,17,3.0,4.0,90,0.00,,,0.01,Wunderground v.1.15,2013-01-06 23:34:00,
2013-01-06 18:40:00,30.2,27.1,30.24,NNE,16,3.0,3.0,88,0.00,,,0.01,Wunderground v.1.15,2013-01-06 23:40:00,
2013-01-06 18:46:00,30.0,26.9,30.24,NNE,27,3.0,3.0,88,0.00,,,0.01,Wunderground v.1.15,2013-01-06 23:46:00,
2013-01-06 18:52:00,29.9,26.8,30.25,ENE,70,4.0,4.0,88,0.00,,,0.01,Wunderground v.1.15,2013-01-06 23:52:00,
2013-01-06 18:58:00,29.8,26.4,30.25,West,262,4.0,7.0,87,0.00,,,0.01,Wunderground v.1.15,2013-01-06 23:58:00,
2013-01-06 19:04:00,29.8,26.4,30.25,NE,53,4.0,4.0,87,0.00,,,0.01,Wunderground v.1.15,2013-01-07 00:04:00,
2013-01-06 19:10:00,29.7,26.3,30.26,ENE,75,3.0,3.0,87,0.00,,,0.01,Wunderground v.1.15,2013-01-07 00:10:00,
2013-01-06 19:16:00,29.7,26.3,30.25,ENE,61,1.0,3.0,87,0.00,,,0.01,Wunderground v.1.15,2013-01-07 00:16:00,
2013-01-06 19:22:00,29.9,25.9,30.26,NE,51,2.0,7.0,85,0.00,,,0.01,Wunderground v.1.15,2013-01-07 00:22:00,
2013-01-06 19:28:00,30.1,26.1,30.26,NE,40,2.0,7.0,85,0.00,,,0.01,Wunderground v.1.15,2013-01-07 00:28:00,
2013-01-06 19:34:00,30.0,26.3,30.26,NE,47,1.0,2.0,86,0.00,,,0.01,Wunderground v.1.15,2013-01-07 00:34:00,
2013-01-06 19:40:00,30.2,25.7,30.26,ENE,59,2.0,2.0,83,0.00,,,0.01,Wunderground v.1.15,2013-01-07 00:40:00,
2013-01-06 19:46:00,30.5,25.7,30.26,North,5,2.0,2.0,82,0.00,,,0.01,Wunderground v.1.15,2013-01-07 00:46:00,
2013-01-06 19:52:00,30.7,25.9,30.26,NNE,15,2.0,2.0,82,0.00,,,0.01,Wunderground v.1.15,2013-01-07 00:52:00,
2013-01-06 19:58:00,30.8,26.0,30.26,WSW,239,2.0,2.0,82,0.00,,,0.01,Wunderground v.1.15,2013-01-07 00:58:00,
2013-01-06 20:04:00,30.9,26.1,30.25,NNE,25,2.0,3.0,82,0.00,,,0.01,Wunderground v.1.15,2013-01-07 01:04:00,
2013-01-06 20:10:00,30.9,26.1,30.26,NE,51,2.0,3.0,82,0.00,,,0.01,Wunderground v.1.15,2013-01-07 01:10:00,
2013-01-06 20:16:00,31.0,25.9,30.26,NNE,29,2.0,3.0,81,0.00,,,0.01,Wunderground v.1.15,2013-01-07 01:16:00,
2013-01-06 20:22:00,31.1,26.0,30.26,NE,39,2.0,5.0,81,0.00,,,0.01,Wunderground v.1.15,2013-01-07 01:22:00,
2013-01-06 20:28:00,31.2,26.0,30.27,NNE,32,2.0,5.0,81,0.00,,,0.01,Wunderground v.1.15,2013-01-07 01:28:00,
2013-01-06 20:34:00,31.2,26.0,30.27,NE,49,2.0,5.0,81,0.00,,,0.01,Wunderground v.1.15,2013-01-07 01:34:00,
2013-01-06 20:40:00,31.3,26.1,30.27,ENE,58,2.0,2.0,81,0.00,,,0.01,Wunderground v.1.15,2013-01-07 01:40:00,
2013-01-06 20:46:00,31.4,25.9,30.27,NE,40,3.0,4.0,80,0.00,,,0.01,Wunderground v.1.15,2013-01-07 01:46:00,
2013-01-06 20:52:00,31.5,26.0,30.28,North,1,3.0,3.0,80,0.00,,,0.01,Wunderground v.1.15,2013-01-07 01:52:00,
2013-01-06 20:58:00,31.6,26.1,30.27,ENE,58,2.0,3.0,80,0.00,,,0.01,Wunderground v.1.15,2013-01-07 01:58:00,
2013-01-06 21:04:00,31.6,26.4,30.28,NE,41,3.0,3.0,81,0.00,,,0.01,Wunderground v.1.15,2013-01-07 02:04:00,
2013-01-06 21:10:00,31.5,26.3,30.28,NNE,25,3.0,3.0,81,0.00,,,0.01,Wunderground v.1.15,2013-01-07 02:10:00,
2013-01-06 21:16:00,31.5,26.6,30.29,NNE,23,2.0,3.0,82,0.00,,,0.01,Wunderground v.1.15,2013-01-07 02:16:00,
2013-01-06 21:22:00,31.4,26.5,30.29,NNE,19,2.0,3.0,82,0.00,,,0.01,Wunderground v.1.15,2013-01-07 02:22:00,
2013-01-06 21:28:00,31.5,26.3,30.29,NNW,329,2.0,3.0,81,0.00,,,0.01,Wunderground v.1.15,2013-01-07 02:28:00,
2013-01-06 21:34:00,31.5,26.0,30.29,NE,56,3.0,3.0,80,0.00,,,0.01,Wunderground v.1.15,2013-01-07 02:34:00,
2013-01-06 21:40:00,31.5,26.0,30.29,NE,35,3.0,3.0,80,0.00,,,0.01,Wunderground v.1.15,2013-01-07 02:40:00,
2013-01-06 21:46:00,31.6,25.8,30.29,NE,53,3.0,7.0,79,0.00,,,0.01,Wunderground v.1.15,2013-01-07 02:46:00,
2013-01-06 21:52:00,31.6,26.1,30.30,SE,124,3.0,3.0,80,0.00,,,0.01,Wunderground v.1.15,2013-01-07 02:52:00,
2013-01-06 21:58:00,31.7,25.9,30.30,SW,225,2.0,7.0,79,0.00,,,0.01,Wunderground v.1.15,2013-01-07 02:58:00,
2013-01-06 22:04:00,31.6,26.4,30.31,NNE,17,2.0,2.0,81,0.00,,,0.01,Wunderground v.1.15,2013-01-07 03:04:00,
2013-01-06 22:10:00,31.5,26.3,30.31,NE,35,1.0,1.0,81,0.00,,,0.01,Wunderground v.1.15,2013-01-07 03:10:00,
2013-01-06 22:16:00,31.5,26.9,30.31,WNW,298,1.0,1.0,83,0.00,,,0.01,Wunderground v.1.15,2013-01-07 03:16:00,
2013-01-06 22:22:00,31.5,26.9,30.31,ENE,61,1.0,1.0,83,0.00,,,0.01,Wunderground v.1.15,2013-01-07 03:22:00,
2013-01-06 22:28:00,31.4,26.8,30.31,NE,56,1.0,3.0,83,0.00,,,0.01,Wunderground v.1.15,2013-01-07 03:28:00,
2013-01-06 22:34:00,31.4,26.8,30.32,ENE,61,2.0,6.0,83,0.00,,,0.01,Wunderground v.1.15,2013-01-07 03:34:00,
2013-01-06 22:40:00,31.5,27.2,30.32,NNE,27,2.0,2.0,84,0.00,,,0.01,Wunderground v.1.15,2013-01-07 03:40:00,
2013-01-06 22:46:00,31.4,27.1,30.32,NE,35,2.0,3.0,84,0.00,,,0.01,Wunderground v.1.15,2013-01-07 03:46:00,
2013-01-06 22:52:00,31.4,27.1,30.32,NE,39,2.0,6.0,84,0.00,,,0.01,Wunderground v.1.15,2013-01-07 03:52:00,
2013-01-06 22:58:00,31.4,27.1,30.32,NNE,33,2.0,6.0,84,0.00,,,0.01,Wunderground v.1.15,2013-01-07 03:58:00,
2013-01-06 23:04:00,31.3,27.3,30.32,North,9,2.0,4.0,85,0.00,,,0.01,Wunderground v.1.15,2013-01-07 04:04:00,
2013-01-06 23:10:00,31.3,27.3,30.33,NNE,25,2.0,4.0,85,0.00,,,0.01,Wunderground v.1.15,2013-01-07 04:10:00,
2013-01-06 23:16:00,31.2,27.5,30.33,ENE,60,2.0,4.0,86,0.00,,,0.01,Wunderground v.1.15,2013-01-07 04:16:00,
2013-01-06 23:22:00,31.2,27.5,30.34,ENE,65,2.0,3.0,86,0.00,,,0.01,Wunderground v.1.15,2013-01-07 04:22:00,
2013-01-06 23:28:00,31.1,27.7,30.34,North,11,1.0,3.0,87,0.00,,,0.01,Wunderground v.1.15,2013-01-07 04:28:00,
2013-01-06 23:34:00,31.0,27.3,30.35,ENE,59,2.0,3.0,86,0.00,,,0.01,Wunderground v.1.15,2013-01-07 04:34:00,
2013-01-06 23:40:00,31.0,27.3,30.35,NNE,25,2.0,2.0,86,0.00,,,0.01,Wunderground v.1.15,2013-01-07 04:40:00,
2013-01-06 23:46:00,30.9,27.2,30.35,NNE,25,1.0,4.0,86,0.00,,,0.01,Wunderground v.1.15,2013-01-07 04:46:00,
2013-01-06 23:52:00,30.9,27.2,30.35,NNW,335,2.0,2.0,86,0.00,,,0.01,Wunderground v.1.15,2013-01-07 04:52:00,
2013-01-06 23:58:00,30.8,27.1,30.35,NE,36,2.0,2.0,86,0.00,,,0.01,Wunderground v.1.15,2013-01-07 04:58:00,